This demonstration page uses our WeatherBlox Daily Observations layout. Learn more.

Left ArrowRight Arrow

Hourly Observations for July 11, 2021

Temp ( °F °C ) Dew Point ( °F °C ) Humidity (%) Winds ( mph kmh ) Pressure ( in mb ) Visibility ( mi km ) Precip ( " mm )
1:15 am 01:15 Clear 60 15.5 58 14.3 93 93 NNW 6 9 30.07 1018 10 16 N/A
1:55 am 01:55 Clear 61 16.2 58 14.6 90 90 N 7 11 30.07 1018 10 16 N/A
2:15 am 02:15 Clear 60 15.4 58 14.2 93 93 NW 3 6 30.07 1018 10 16 N/A
2:35 am 02:35 Clear 59 15.2 58 14.2 94 94 NNW 5 7 30.07 1018 10 16 N/A
2:55 am 02:55 Clear 58 14.6 57 13.7 94 94 NW 3 6 30.08 1019 10 16 N/A
3:15 am 03:15 Clear 58 14.7 57 14 96 96 WNW 7 11 30.08 1019 10 16 N/A
3:35 am 03:35 Clear 58 14.5 57 13.7 95 95 NW 8 13 30.07 1018 10 16 N/A
3:55 am 03:55 Clear 59 14.8 57 14 95 95 NW 7 11 30.08 1019 10 16 N/A
4:15 am 04:15 Clear 59 15 58 14.2 95 95 NNW 6 9 30.08 1018 10 16 N/A
4:35 am 04:35 Clear 58 14.6 57 13.9 96 96 NW 6 9 30.08 1019 10 16 N/A
4:55 am 04:55 Partly Cloudy 58 14.5 57 14 97 97 NNW 6 9 30.08 1019 10 16 N/A
5:15 am 05:15 Cloudy 59 15.2 58 14.5 96 96 N 5 7 30.08 1019 10 16 N/A
5:35 am 05:35 Cloudy 60 15.6 59 15 96 96 N 5 7 30.08 1019 10 16 N/A
5:55 am 05:55 Cloudy 61 16.1 59 15.2 94 94 NNE 7 11 30.08 1018 10 16 N/A
6:15 am 06:15 Cloudy 61 16.3 59 15.2 93 93 NNE 5 7 30.08 1019 10 16 N/A
6:35 am 06:35 Cloudy 61 16.2 59 15.1 93 93 N N/A 30.09 1019 10 16 N/A
6:55 am 06:55 Cloudy 62 16.5 59 15 91 91 N 7 11 30.09 1019 10 16 N/A
7:15 am 07:15 Cloudy 62 16.8 60 15.3 91 91 N 6 9 30.10 1019 10 16 N/A
7:35 am 07:35 Partly Cloudy 63 17 59 15.1 89 89 N 7 11 30.11 1020 10 16 N/A
7:55 am 07:55 Sunny 63 17.2 60 15.4 89 89 N 8 13 30.11 1020 10 16 N/A
8:15 am 08:15 Sunny 64 17.6 60 15.4 87 87 N N/A 30.10 1019 10 16 N/A
8:35 am 08:35 Partly Cloudy 64 17.8 60 15.3 85 85 N N/A 30.10 1019 10 16 N/A
8:55 am 08:55 Partly Cloudy 65 18.2 60 15.4 84 84 N 3 6 30.11 1020 10 16 N/A
9:15 am 09:15 Partly Cloudy 66 18.8 60 15.3 80 80 N 3 6 30.10 1019 10 16 N/A
9:35 am 09:35 Partly Cloudy 67 19.2 59 15.1 77 77 NNE 6 9 30.10 1019 10 16 N/A
9:55 am 09:55 Partly Cloudy 67 19.5 58 14.7 74 74 N N/A 30.10 1019 10 16 N/A
10:15 am 10:15 Partly Cloudy 68 19.8 58 14.6 72 72 NE 7 11 30.09 1019 10 16 N/A
10:35 am 10:35 Mostly Cloudy 69 20.7 60 15.4 72 72 NNE 7 11 30.09 1019 10 16 N/A
10:55 am 10:55 Mostly Cloudy 69 20.7 58 14.5 68 68 ENE 6 9 30.09 1019 10 16 N/A
11:15 am 11:15 Partly Cloudy 69 20.6 59 14.8 70 70 N N/A 30.09 1019 10 16 N/A
11:35 am 11:35 Mostly Cloudy 71 21.4 58 14.6 65 65 N N/A 30.08 1019 10 16 N/A
11:55 am 11:55 Mostly Cloudy 72 22 58 14.5 63 63 NNE 7 11 30.07 1018 10 16 N/A
12:15 pm 12:15 Partly Cloudy 72 22.1 58 14.3 61 61 NE 6 9 30.07 1018 10 16 N/A
12:35 pm 12:35 Partly Cloudy 71 21.8 57 13.9 61 61 ENE 3 6 30.08 1018 10 16 N/A
12:55 pm 12:55 Mostly Cloudy 73 22.6 58 14.4 60 60 N N/A 30.06 1018 10 16 N/A
1:15 pm 13:15 Partly Cloudy 74 23.4 57 14.1 56 56 E 6 9 30.05 1018 10 16 N/A
1:35 pm 13:35 Sunny 74 23.6 57 13.9 55 55 ENE 5 7 30.05 1018 10 16 N/A
1:55 pm 13:55 Partly Cloudy 74 23.5 57 13.9 55 55 SE 6 9 30.04 1017 10 16 N/A
2:15 pm 14:15 Partly Cloudy 76 24.2 58 14.2 54 54 E 10 17 30.03 1017 10 16 N/A
2:35 pm 14:35 Partly Cloudy 75 24.1 57 13.9 53 53 E 5 7 30.02 1016 10 16 N/A
2:55 pm 14:55 Partly Cloudy 76 24.4 56 13.5 51 51 NNE 5 7 30.01 1016 10 16 N/A
3:15 pm 15:15 Partly Cloudy 76 24.5 56 13.4 50 50 NE 3 6 30.00 1016 10 16 N/A
3:35 pm 15:35 Partly Cloudy 75 24.1 56 13.1 50 50 SE 5 7 30.01 1016 10 16 N/A
3:55 pm 15:55 Partly Cloudy 77 25.2 58 14.2 51 51 N 5 7 30.00 1016 10 16 N/A
4:15 pm 16:15 Mostly Cloudy 76 24.6 56 13.6 50 50 E 6 9 30.00 1016 10 16 N/A
4:35 pm 16:35 Mostly Cloudy 76 24.6 55 12.7 48 48 N N/A 29.99 1016 10 16 N/A
4:55 pm 16:55 Mostly Cloudy 76 24.6 56 13.3 49 49 E 3 6 29.99 1016 10 16 N/A
5:15 pm 17:15 Partly Cloudy 77 24.9 55 12.9 47 47 E 3 6 29.98 1015 10 16 N/A
5:35 pm 17:35 Mostly Cloudy 78 25.3 55 12.7 46 46 E 5 7 29.98 1015 10 16 N/A
5:55 pm 17:55 Mostly Cloudy 76 24.5 55 12.9 48 48 E 3 6 29.98 1015 10 16 N/A
6:15 pm 18:15 Partly Cloudy 76 24.2 57 13.9 53 53 N N/A 29.98 1015 10 16 N/A
6:35 pm 18:35 Partly Cloudy 77 25 55 12.8 47 47 N N/A 29.97 1015 10 16 N/A
6:55 pm 18:55 Partly Cloudy 77 25.2 56 13.2 47 47 ENE 5 7 29.97 1015 10 16 N/A
7:15 pm 19:15 Partly Cloudy 77 25 57 13.8 50 50 ENE 6 9 29.96 1015 10 16 N/A
7:35 pm 19:35 Partly Cloudy 74 23.3 60 15.4 61 61 N N/A 29.97 1015 10 16 N/A
7:55 pm 19:55 Partly Cloudy 76 24.4 56 13.2 50 50 E 3 6 29.96 1015 10 16 N/A
8:15 pm 20:15 Sunny 75 23.7 57 13.8 54 54 E 5 7 29.97 1015 10 16 N/A
8:35 pm 20:35 Sunny 73 22.9 57 13.9 57 57 E 6 9 29.98 1015 10 16 N/A
8:55 pm 20:55 Sunny 72 22 58 14.4 62 62 SE 6 9 29.98 1015 10 16 N/A
9:15 pm 21:15 Clear 72 22 57 14.1 61 61 ESE 3 6 29.98 1015 10 16 N/A
9:35 pm 21:35 Clear 68 20 58 14.5 71 71 SE 3 6 30.01 1016 10 16 N/A
9:55 pm 21:55 Clear 66 19.1 59 15.1 78 78 N N/A 30.02 1017 10 16 N/A
10:15 pm 22:15 Clear 66 19 59 14.8 77 77 N N/A 30.03 1017 10 16 N/A
10:35 pm 22:35 Clear 64 17.9 59 14.9 83 83 N N/A 30.04 1017 10 16 N/A
10:55 pm 22:55 Clear 64 17.5 59 15 85 85 N N/A 30.05 1018 10 16 N/A
11:15 pm 23:15 Clear 64 17.7 59 14.8 83 83 N N/A 30.06 1018 10 16 N/A
11:35 pm 23:35 Clear 62 16.9 58 14.7 87 87 N N/A 30.07 1018 10 16 N/A
11:55 pm 23:55 Clear 62 16.9 58 14.7 87 87 N N/A 30.07 1018 10 16 N/A

Powered by AerisWeather